Location: Unspecified
(47.5840°N, 122.3000°W)
Time: 07:11:52
(UTC+00:00)

CZ-2C R/B - Pass Details

Date: 04 August 2024
Orbit: 665 x 777 km, 98.4° (Epoch: 19 September)

Event Time Altitude Azimuth Distance (km) Brightness Sun altitude
Rises 12:02:34 0° 13° (NNE) 3,242 6.6 -7.9°
Reaches altitude 10° 12:04:52 10° 12° (NNE) 2,322 5.8 -7.6°
Maximum altitude 12:10:01 81° 286° (WNW) 792 2.6 -6.8°
Drops below altitude 10° 12:15:10 10° 200° (SSW) 2,324 4.5 -6.1°
Sets 12:17:28 0° 199° (SSW) 3,245 5.3 -5.8°
Enters shadow 12:17:35 - 199° (SSW) 3,292 5.3 -5.8°
